Temp
-12 -12 -12 -12 -12 -12 -12 -12 -12 -12 -12 -13 -13 -13 -13 -13 -13 -13 -13 -13 -13 -13 -13 -13 -13 -13 -13 -13 -13 -13 -13 -13 -13 -13 -13 -13 -13 -13 -13 -13 -13 -13
-12 -12 -12 -12 -12 -12 -12 -12 -12 -13 -13 -13 -13 -13 -13 -13 -13 -13 -13 -13 -13 -14 -14 -14 -13 -13 -13 -13 -13 -13 -13 -13 -13 -13 -13 -13 -13 -13 -13 -13 -13 -13
-12 -12 -13 -13 -12 -12 -12 -12 -13 -13 -13 -13 -13 -14 -14 -14 -14 -14 -14 -14 -14 -14 -14 -14 -14 -14 -14 -14 -14 -14 -14 -14 -14 -13 -13 -13 -13 -13 -13 -13 -13 -13
-12 -12 -13 -13 -12 -12 -12 -12 -13 -13 -13 -14 -14 -14 -14 -14 -14 -14 -14 -14 -14 -14 -14 -14 -14 -14 -14 -14 -14 -14 -14 -14 -14 -14 -14 -14 -14 -14 -14 -14 -14 -14
-13 -13 -13 -13 -13 -13 -13 -13 -13 -13 -14 -14 -14 -14 -14 -14 -14 -14 -15 -15 -15 -15 -14 -15 -15 -15 -15 -15 -15 -15 -14 -14 -14 -14 -14 -14 -14 -14 -14 -14 -14 -14
-13 -13 -13 -13 -13 -14 -14 -14 -14 -14 -14 -15 -15 -14 -14 -14 -15 -15 -15 -15 -15 -15 -15 -15 -15 -15 -15 -15 -15 -15 -15 -14 -14 -14 -14 -14 -14 -14 -14 -14 -14 -14
-13 -13 -13 -13 -13 -14 -14 -14 -14 -15 -15 -15 -14 -14 -14 -15 -15 -15 -15 -15 -15 -15 -15 -15 -15 -15 -15 -15 -15 -15 -15 -15 -15 -15 -15 -15 -15 -15 -15 -15 -14 -14
-13 -13 -13 -13 -13 -13 -14 -14 -15 -15 -15 -14 -14 -14 -14 -15 -15 -15 -15 -15 -15 -15 -15 -15 -15 -15 -15 -15 -15 -15 -15 -15 -15 -15 -15 -15 -15 -15 -15 -15 -15 -15
-13 -13 -14 -14 -14 -14 -14 -15 -15 -15 -15 -15 -15 -15 -15 -15 -15 -15 -15 -15 -15 -15 -16 -16 -16 -15 -15 -15 -15 -16 -16 -16 -16 -16 -15 -15 -15 -15 -15 -15 -15 -15
-13 -14 -14 -14 -14 -14 -14 -15 -15 -15 -15 -15 -15 -15 -15 -16 -15 -15 -15 -15 -16 -16 -16 -16 -16 -16 -16 -16 -16 -16 -16 -16 -16 -16 -16 -16 -16 -15 -15 -15 -15 -15
-13 -14 -14 -14 -15 -15 -15 -15 -15 -15 -15 -15 -15 -15 -15 -15 -15 -15 -15 -16 -16 -16 -16 -16 -16 -16 -16 -17 -17 -17 -17 -17 -17 -16 -16 -16 -16 -16 -15 -15 -15 -15
-14 -14 -14 -15 -15 -15 -15 -15 -15 -15 -15 -15 -15 -15 -15 -15 -16 -16 -16 -16 -16 -16 -16 -16 -17 -17 -17 -17 -17 -17 -17 -17 -17 -16 -16 -16 -16 -16 -16 -16 -16 -16
-14 -14 -15 -15 -15 -16 -16 -16 -15 -15 -15 -15 -15 -15 -15 -16 -16 -16 -16 -16 -17 -17 -17 -17 -17 -17 -18 -18 -17 -17 -17 -17 -17 -16 -16 -16 -16 -16 -16 -16 -16 -16
-15 -15 -15 -15 -16 -16 -16 -16 -15 -15 -15 -15 -15 -16 -16 -16 -16 -16 -16 -16 -17 -17 -17 -17 -17 -18 -18 -18 -18 -18 -17 -17 -17 -17 -17 -17 -16 -16 -16 -16 -16 -16
-15 -16 -16 -16 -16 -16 -16 -15 -15 -15 -15 -15 -16 -16 -16 -17 -16 -16 -16 -16 -17 -17 -17 -17 -17 -18 -18 -18 -18 -18 -18 -17 -17 -17 -17 -17 -17 -16 -16 -16 -16 -16
-15 -16 -16 -16 -16 -16 -16 -16 -15 -15 -15 -16 -16 -16 -17 -17 -16 -16 -16 -17 -17 -17 -17 -17 -17 -18 -18 -18 -18 -18 -18 -17 -17 -17 -17 -17 -17 -17 -17 -17 -16 -16
-15 -16 -16 -16 -16 -16 -16 -16 -16 -16 -16 -16 -16 -17 -17 -16 -17 -17 -17 -17 -17 -17 -17 -17 -18 -18 -18 -18 -18 -18 -18 -17 -17 -17 -17 -17 -17 -17 -17 -17 -17 -17
-16 -16 -16 -16 -16 -16 -16 -16 -16 -16 -16 -17 -17 -17 -17 -17 -17 -17 -17 -17 -17 -17 -17 -18 -18 -18 -18 -18 -18 -18 -18 -18 -17 -17 -17 -17 -17 -17 -17 -17 -17 -17
-16 -16 -16 -16 -16 -16 -17 -17 -17 -17 -17 -17 -17 -17 -17 -17 -17 -18 -18 -18 -18 -18 -18 -18 -18 -18 -18 -18 -18 -18 -18 -18 -17 -17 -17 -17 -17 -17 -17 -17 -17 -17
-16 -16 -17 -17 -17 -17 -17 -17 -17 -17 -17 -18 -18 -17 -17 -18 -18 -18 -18 -18 -19 -19 -19 -19 -19 -18 -18 -18 -18 -18 -18 -18 -18 -17 -17 -17 -18 -18 -18 -18 -18 -18
-17 -17 -17 -17 -17 -17 -17 -17 -17 -17 -18 -18 -18 -18 -18 -18 -18 -18 -18 -19 -19 -19 -19 -19 -18 -18 -18 -18 -18 -18 -18 -18 -18 -18 -18 -18 -18 -18 -18 -18 -18 -18
-18 -18 -18 -18 -18 -18 -17 -17 -17 -18 -18 -18 -18 -18 -18 -18 -18 -18 -19 -19 -19 -19 -18 -18 -18 -18 -18 -18 -18 -18 -18 -18 -18 -18 -18 -18 -18 -18 -18 -18 -18 -18
-18 -18 -18 -18 -18 -18 -18 -18 -18 -18 -19 -19 -19 -19 -19 -19 -19 -19 -19 -19 -19 -18 -18 -18 -18 -18 -18 -18 -18 -18 -18 -18 -18 -19 -19 -19 -19 -19 -19 -19 -18 -18
-19 -19 -18 -18 -18 -18 -18 -19 -19 -19 -19 -19 -19 -19 -19 -19 -19 -19 -19 -19 -19 -18 -18 -18 -18 -18 -18 -18 -18 -18 -18 -19 -19 -19 -19 -19 -19 -19 -19 -19 -18 -18
-19 -19 -19 -19 -18 -18 -18 -19 -19 -19 -19 -19 -19 -19 -19 -19 -19 -19 -19 -19 -19 -19 -18 -18 -18 -18 -18 -18 -18 -19 -19 -19 -19 -19 -19 -19 -19 -19 -19 -18 -18 -18
-19 -19 -19 -19 -19 -18 -18 -19 -19 -19 -19 -19 -19 -19 -19 -19 -19 -19 -19 -19 -19 -19 -19 -19 -19 -19 -19 -19 -19 -19 -19 -19 -19 -19 -19 -19 -19 -19 -19 -18 -18 -18
Height
5796 5796 5796 5796 5795 5794 5794 5793 5792 5792 5792 5792 5790 5789 5788 5787 5786 5785 5784 5783 5782 5781 5780 5780 5780 5780 5779 5779 5778 5778 5777 5777 5776 5776 5776 5776 5776 5775 5775 5774 5774 5774
5790 5791 5791 5791 5791 5790 5789 5787 5786 5786 5787 5786 5785 5784 5783 5781 5781 5780 5779 5777 5777 5776 5776 5775 5775 5774 5773 5773 5772 5772 5771 5771 5770 5770 5770 5770 5770 5769 5769 5768 5768 5768
5785 5786 5786 5786 5786 5786 5785 5782 5780 5781 5781 5780 5779 5778 5777 5776 5775 5774 5773 5772 5771 5770 5770 5769 5768 5768 5767 5766 5765 5765 5765 5765 5764 5763 5763 5763 5763 5763 5762 5762 5762 5762
5781 5781 5781 5781 5781 5781 5780 5778 5776 5775 5775 5774 5773 5772 5771 5770 5769 5768 5767 5766 5765 5764 5763 5763 5762 5760 5759 5759 5759 5759 5759 5758 5757 5756 5756 5757 5756 5756 5756 5756 5756 5755
5775 5775 5775 5775 5775 5775 5774 5772 5771 5770 5769 5769 5767 5766 5765 5764 5763 5762 5761 5760 5758 5757 5756 5755 5754 5753 5753 5752 5752 5752 5752 5751 5750 5749 5750 5750 5750 5749 5749 5749 5749 5749
5770 5769 5769 5768 5768 5768 5768 5767 5766 5764 5763 5762 5760 5759 5758 5757 5756 5755 5754 5752 5751 5750 5749 5748 5747 5746 5746 5745 5745 5745 5744 5743 5743 5743 5743 5743 5743 5743 5742 5742 5742 5742
5764 5764 5763 5762 5762 5761 5761 5760 5759 5758 5756 5755 5753 5752 5751 5750 5749 5747 5746 5744 5743 5742 5741 5740 5740 5739 5738 5737 5737 5737 5736 5736 5736 5736 5736 5736 5736 5735 5735 5734 5734 5735
5756 5756 5755 5755 5754 5754 5753 5752 5751 5750 5748 5747 5746 5745 5743 5742 5741 5740 5738 5737 5736 5735 5734 5734 5733 5732 5730 5729 5729 5728 5728 5728 5728 5727 5727 5727 5727 5727 5727 5726 5726 5727
5747 5748 5746 5745 5744 5745 5745 5744 5743 5742 5740 5740 5738 5736 5735 5735 5734 5732 5730 5729 5729 5728 5727 5726 5725 5724 5722 5721 5720 5720 5719 5719 5719 5718 5718 5718 5718 5719 5718 5718 5719 5719
5738 5739 5739 5736 5736 5737 5737 5736 5735 5733 5733 5732 5731 5729 5728 5727 5726 5724 5722 5722 5721 5720 5719 5718 5716 5714 5713 5712 5711 5711 5710 5710 5709 5709 5710 5710 5710 5710 5710 5710 5710 5711
5733 5733 5732 5729 5729 5729 5729 5729 5727 5726 5725 5724 5723 5722 5721 5719 5718 5716 5714 5714 5713 5711 5710 5708 5707 5705 5704 5704 5703 5702 5702 5701 5701 5701 5701 5701 5702 5702 5702 5702 5702 5702
5731 5729 5725 5722 5719 5719 5720 5720 5720 5719 5718 5717 5716 5715 5713 5711 5710 5708 5706 5705 5704 5703 5701 5699 5698 5697 5696 5695 5694 5694 5693 5694 5693 5694 5694 5694 5694 5693 5693 5693 5693 5693
5724 5722 5719 5715 5712 5711 5711 5711 5711 5710 5709 5708 5707 5705 5702 5701 5700 5700 5698 5696 5695 5694 5692 5690 5689 5688 5687 5686 5686 5685 5685 5686 5686 5686 5686 5686 5686 5685 5685 5685 5684 5684
5712 5711 5709 5706 5704 5703 5702 5702 5701 5700 5698 5697 5696 5694 5692 5691 5692 5691 5689 5687 5685 5684 5683 5681 5680 5679 5678 5678 5677 5677 5678 5678 5678 5678 5677 5677 5677 5677 5677 5676 5676 5675
5701 5700 5698 5696 5695 5695 5694 5693 5692 5690 5688 5687 5687 5686 5685 5684 5684 5683 5680 5678 5676 5676 5675 5673 5672 5671 5670 5670 5670 5670 5670 5670 5670 5670 5669 5669 5668 5668 5668 5667 5667 5666
5692 5690 5688 5687 5687 5686 5684 5683 5682 5681 5680 5680 5680 5679 5677 5677 5678 5676 5672 5669 5668 5667 5666 5665 5664 5663 5662 5662 5662 5662 5662 5662 5662 5661 5661 5660 5659 5659 5658 5657 5656 5656
5682 5681 5679 5677 5677 5677 5675 5673 5673 5673 5673 5672 5671 5670 5670 5669 5667 5664 5661 5659 5659 5658 5657 5656 5655 5654 5654 5653 5653 5653 5652 5652 5653 5652 5651 5650 5650 5648 5648 5647 5646 5645
5672 5671 5670 5669 5668 5667 5666 5665 5665 5665 5665 5664 5662 5661 5661 5658 5654 5651 5650 5650 5649 5648 5648 5647 5647 5646 5645 5645 5644 5643 5643 5642 5642 5642 5641 5640 5639 5637 5636 5636 5635 5634
5664 5662 5662 5662 5660 5658 5657 5657 5656 5655 5654 5653 5651 5651 5649 5645 5643 5642 5641 5640 5639 5639 5639 5639 5638 5637 5636 5635 5634 5633 5632 5631 5631 5631 5630 5629 5627 5626 5625 5625 5624 5623
5655 5654 5653 5652 5651 5649 5648 5648 5646 5644 5643 5641 5641 5640 5638 5636 5634 5633 5632 5631 5631 5630 5630 5631 5630 5628 5627 5625 5624 5623 5621 5620 5619 5619 5618 5617 5616 5615 5615 5615 5614 5613
5646 5645 5643 5642 5641 5640 5639 5638 5636 5634 5633 5632 5631 5630 5629 5627 5626 5625 5624 5623 5622 5621 5622 5622 5621 5619 5617 5615 5613 5612 5610 5608 5607 5607 5606 5606 5606 5605 5605 5604 5604 5603
5636 5635 5634 5633 5632 5630 5629 5627 5626 5625 5623 5621 5621 5620 5619 5618 5617 5616 5615 5614 5613 5612 5612 5612 5611 5608 5606 5604 5602 5600 5599 5597 5596 5595 5594 5595 5595 5594 5594 5594 5593 5592
5626 5625 5624 5623 5622 5620 5619 5617 5616 5615 5613 5611 5611 5611 5610 5608 5607 5606 5605 5604 5603 5602 5601 5601 5600 5597 5595 5593 5591 5589 5587 5586 5585 5584 5584 5583 5583 5583 5583 5582 5582 5581
5616 5615 5614 5612 5611 5609 5608 5607 5605 5604 5603 5602 5601 5601 5600 5598 5597 5596 5596 5594 5593 5592 5590 5590 5589 5587 5584 5582 5580 5577 5575 5574 5573 5573 5573 5572 5572 5572 5571 5570 5570 5569
5604 5603 5602 5601 5599 5598 5596 5595 5594 5593 5592 5591 5590 5590 5589 5588 5586 5585 5585 5584 5582 5581 5580 5578 5578 5576 5573 5571 5569 5566 5563 5562 5561 5561 5561 5561 5561 5560 5559 5558 5558 5558
5593 5592 5591 5589 5587 5586 5585 5584 5582 5581 5580 5580 5578 5577 5576 5576 5574 5573 5573 5573 5571 5569 5569 5567 5566 5565 5562 5559 5557 5554 5551 5550 5549 5550 5550 5550 5549 5549 5548 5547 5547 5546
Wind_Speed
38 39 39 39 40 41 41 41 41 41 41 41 41 41 44 46 46 45 46 48 49 49 49 49 49 49 49 49 49 49 49 49 49 49 49 48 48 49 49 49 48 47
40 40 41 40 39 40 41 42 41 39 38 41 42 43 43 44 45 45 47 48 49 50 50 50 50 49 49 50 50 50 49 49 50 50 50 50 49 50 50 50 50 50
41 41 41 39 39 40 41 40 39 38 39 40 41 41 42 44 46 47 48 50 50 51 51 51 50 50 50 50 50 50 50 50 51 52 53 52 51 51 51 51 50 50
44 44 43 41 41 42 42 41 40 40 39 39 40 43 46 48 48 49 49 50 51 52 52 51 51 50 50 50 50 50 51 52 54 55 55 53 52 51 50 50 50 49
42 42 42 43 44 44 42 42 41 39 39 41 45 47 49 49 48 47 48 50 51 52 52 52 51 51 50 50 51 52 53 54 55 54 53 51 50 49 49 50 51 51
35 34 34 37 39 37 37 38 38 39 41 44 46 47 48 49 47 47 49 52 54 54 54 53 52 51 51 52 53 53 53 53 52 51 50 50 50 51 51 52 53 53
47 42 39 38 39 41 45 47 45 45 47 48 48 49 50 50 48 48 50 53 55 55 54 53 52 52 53 53 53 52 51 51 50 51 52 52 53 53 53 54 54 53
58 57 54 52 52 53 55 54 52 51 52 53 52 52 52 51 50 51 53 54 54 54 54 54 54 55 54 54 53 53 52 52 53 54 54 54 53 52 52 52 52 51
62 60 55 52 51 51 52 52 52 53 54 54 53 53 53 52 54 57 58 58 58 57 58 58 58 57 57 57 57 55 54 55 56 56 55 54 52 51 50 50 50 50
60 53 50 51 52 51 51 51 51 53 55 55 55 56 56 56 58 60 60 60 61 61 60 60 59 59 60 59 57 56 56 57 57 56 54 52 51 50 49 49 50 50
51 49 49 52 51 49 49 52 56 59 60 60 61 62 62 62 62 63 63 62 62 61 60 59 60 60 59 58 57 57 57 56 55 53 52 51 50 50 50 51 50 50
49 49 46 46 50 56 60 64 65 65 64 64 65 66 67 68 65 62 61 60 58 58 59 59 59 59 59 58 57 56 55 54 52 52 51 51 51 52 52 52 52 52
60 60 58 60 68 73 73 70 67 66 66 66 66 66 67 65 59 56 56 58 58 58 58 59 60 59 59 58 57 55 54 52 51 51 51 52 52 52 53 54 54 53
72 72 72 73 76 75 73 70 67 67 68 66 64 62 60 57 54 54 57 59 58 57 57 58 58 58 58 56 55 53 52 51 51 51 52 53 53 54 55 55 55 54
75 74 74 74 74 73 71 68 65 65 64 61 57 54 54 54 55 57 59 59 58 57 56 56 55 53 52 51 50 49 49 50 51 51 53 54 54 55 55 55 56 56
75 74 73 72 70 68 67 64 61 57 55 54 53 53 55 57 57 58 59 60 60 59 57 55 54 50 48 46 46 47 48 49 51 52 53 54 55 55 56 56 57 57
75 73 72 70 67 64 63 62 59 56 56 57 59 59 60 60 59 60 62 63 64 63 60 60 57 52 49 47 48 49 51 53 54 55 56 56 56 56 57 57 57 57
71 71 69 67 65 63 60 59 60 61 62 63 64 61 58 57 59 60 61 62 64 64 63 61 57 52 50 50 51 52 54 56 57 57 57 57 56 56 56 56 56 56
66 65 64 62 62 62 61 62 64 66 66 64 61 57 54 53 55 55 55 56 57 56 55 53 51 50 51 51 53 55 57 58 58 58 58 57 56 56 56 55 55 55
58 59 60 60 60 61 61 61 60 62 63 61 57 55 55 54 54 54 53 51 51 51 51 51 52 53 54 56 57 58 60 60 60 59 59 58 56 55 55 55 55 56
57 58 59 60 62 65 66 66 63 62 64 62 59 59 59 59 58 57 55 54 54 56 57 58 59 61 61 62 62 61 61 60 60 61 60 58 56 56 56 56 57 59
61 62 61 59 61 64 66 67 67 66 66 65 63 63 64 63 62 60 59 60 62 64 66 67 67 68 67 65 64 63 62 61 61 61 60 59 58 58 58 59 60 61
63 65 66 66 67 66 66 66 66 66 65 65 66 67 67 66 66 65 67 69 71 73 74 73 73 72 70 68 66 65 63 62 61 61 61 61 61 61 61 61 61 62
66 67 70 71 72 73 73 73 73 73 72 72 72 71 71 72 73 74 76 77 78 78 78 77 75 74 71 69 67 64 63 62 62 62 62 62 62 62 62 62 61 62
69 70 71 73 74 75 76 76 76 76 75 75 74 75 75 77 78 79 80 80 79 79 79 77 75 73 71 68 64 62 62 63 64 64 63 62 62 62 62 62 63 64
73 74 74 75 76 77 78 78 78 79 78 78 78 78 77 78 79 80 80 80 79 78 77 75 73 70 67 63 61 62 63 64 64 63 61 61 62 62 62 63 64 65
Wind_Direction
268 270 274 278 280 278 277 276 274 274 274 273 273 278 280 281 283 283 282 283 284 285 286 286 286 287 287 288 288 288 288 289 291 292 292 292 293 294 295 296 295 295
270 272 276 278 279 281 282 280 275 273 274 274 276 279 280 280 282 283 283 284 284 284 284 285 286 287 288 288 288 288 288 289 290 291 291 292 292 293 294 295 295 296
270 272 274 277 280 282 283 279 274 274 276 276 277 278 279 281 282 283 283 283 282 282 283 284 286 287 287 288 288 289 289 290 290 291 291 291 291 292 293 294 295 295
273 273 273 275 280 281 279 274 272 273 275 277 279 281 282 282 282 282 282 281 281 281 282 283 284 285 285 286 287 288 288 288 289 289 290 290 291 292 293 293 293 293
281 279 276 276 279 281 280 277 275 275 277 282 285 285 284 283 281 281 281 281 281 282 283 283 282 283 283 284 285 285 286 286 286 287 288 289 290 291 291 291 291 291
286 287 284 281 278 278 282 283 280 278 280 284 286 287 286 282 280 281 283 285 285 284 284 281 279 281 283 284 284 284 284 284 285 285 286 288 289 289 288 288 289 289
283 285 284 282 277 278 283 284 281 279 280 282 284 287 287 281 278 283 288 289 288 286 283 280 279 283 285 285 285 284 284 284 285 285 286 287 287 286 286 286 286 286
280 280 282 282 280 279 281 281 279 279 280 281 283 286 284 278 278 285 288 288 288 287 285 284 285 286 286 285 285 285 285 284 284 285 285 285 284 284 283 284 284 284
281 283 283 281 280 280 281 281 281 282 283 284 285 286 284 280 282 286 287 286 288 289 288 287 287 286 285 285 284 283 282 281 281 282 282 281 281 281 281 282 283 283
284 281 276 274 277 281 283 283 285 287 288 287 288 290 287 284 286 287 286 287 288 289 289 287 286 285 284 283 281 280 279 279 279 279 279 279 279 280 281 281 282 282
281 276 275 275 275 278 282 285 287 289 289 288 289 290 288 286 287 286 285 286 288 288 287 286 285 283 282 280 279 278 278 278 278 278 279 279 280 281 282 282 282 281
278 277 278 277 279 284 288 289 289 288 288 287 287 287 286 285 285 284 285 286 286 286 285 283 282 281 280 279 279 278 277 277 278 278 280 281 282 282 282 282 282 282
279 278 276 278 283 287 290 290 290 290 289 287 286 285 283 282 282 284 285 285 284 283 282 281 281 279 278 277 276 275 275 276 277 279 281 282 282 282 283 283 283 282
283 281 281 281 283 286 288 289 290 290 290 288 287 284 280 280 284 288 287 285 283 282 281 281 279 276 274 273 272 274 276 278 280 282 283 283 283 283 283 282 282 283
283 283 282 283 284 286 288 289 289 289 289 287 284 279 276 281 288 290 287 282 279 278 277 277 276 274 272 272 274 277 280 282 283 284 284 284 284 283 282 282 283 283
282 282 282 284 285 286 286 286 288 288 285 281 277 275 279 285 288 285 279 275 273 272 272 273 273 272 272 273 277 279 281 282 283 284 284 284 284 284 284 284 284 284
282 283 283 284 284 284 283 282 282 280 276 275 276 280 285 287 283 277 273 271 271 272 271 271 271 272 273 275 278 279 281 282 283 284 286 286 287 286 287 287 287 285
282 283 284 284 283 282 282 280 278 276 274 275 278 281 283 280 276 274 273 272 272 271 270 270 271 274 276 278 280 282 284 286 287 289 290 290 290 289 288 288 286 284
282 282 282 280 278 278 279 278 277 275 274 275 275 275 273 271 271 273 274 274 273 272 272 274 276 279 281 283 285 287 289 290 292 293 293 292 290 288 286 284 282 279
280 280 279 277 274 273 274 274 271 269 270 272 271 269 269 270 272 273 273 274 275 276 277 279 282 284 286 288 290 292 292 293 293 293 292 290 288 284 282 279 277 275
273 274 275 275 274 272 270 269 266 266 269 270 270 270 271 272 272 272 273 275 277 279 281 283 286 289 290 292 293 293 293 292 292 291 290 287 284 281 278 275 274 274
270 269 270 273 275 273 270 267 266 266 268 268 268 269 271 271 271 271 273 276 279 282 284 287 289 291 293 293 294 294 293 291 289 287 285 282 279 276 275 274 275 276
272 271 271 273 274 273 272 271 270 271 271 271 271 271 271 271 271 272 276 279 281 283 286 287 289 292 293 294 294 293 291 289 286 282 280 277 275 274 275 276 277 279
275 274 273 274 274 274 274 274 274 275 276 277 277 276 275 275 275 276 279 281 283 284 286 287 289 291 293 293 292 290 287 284 281 279 277 275 274 275 277 278 280 281
276 275 274 273 273 273 274 274 275 276 277 278 278 278 278 278 278 279 280 282 284 285 286 288 289 291 291 291 289 285 282 279 278 278 276 275 276 277 279 281 282 283
278 277 275 274 274 274 274 275 276 277 278 278 279 279 279 279 280 281 282 283 284 286 287 288 289 290 290 288 284 280 278 278 278 277 277 277 278 280 282 283 283 281